Weather Roundup
Issued by NWS Chicago, IL

Home | Current Version | Previous Version | Graphics & Text | Print | Product List | Glossary On
Versions: 1 2 3 4 5 6 7 8 9 10 11 12 13 14 15 16 17 18 19 20 21 22 23 24 25 26 27 28 29 30 31 32 33 34 35 36 37 38 39 40 41 42 43 44 45 46 47 48 49 50
271
NZUS59 KLOT 200208
HRRLOT

CHICAGO AREA WEATHER ROUNDUP
NATIONAL WEATHER SERVICE CHICAGO/ROMEOVILLE IL
800 PM CST MON FEB 19 2018

NOTE: "FAIR" INDICATES FEW OR NO CLOUDS BELOW 12,000 FEET WITH NO
SIGNIFICANT WEATHER AND/OR OBSTRUCTIONS TO VISIBILITY.

* THESE STATIONS ARE NOT UNDER NWS QUALITY CONTROL. THEY ALSO MAY NOT
  REPORT WEATHER SUCH AS PRECIPITATION OR FOG.

ILZ005-006-012>014-019>023-200300-
NORTHEAST ILLINOIS

CITY           SKY/WX    TMP DP  RH WIND       PRES   REMARKS
OHARE          LGT RAIN  58  55  90 S16G26    29.80F
MIDWAY         LGT RAIN  58  56  93 S14G24    29.83F
AURORA         LGT RAIN  50  50 100 S10       29.80F VSB 1/4
LANSING*       LGT RAIN  56  56 100 S12       29.86F
JOLIET*        LGT RAIN  59  58  97 S15       29.82F
WAUKEGAN       FOG       38  38 100 NE3       29.80S VSB 1/2
DUPAGE AIRPORT CLOUDY    54  54 100 S14       29.80F FOG
WHEELING       LGT RAIN  59  57  93 S16G25    29.81F
KANKAKEE*      DRIZZLE   58  57  97 S15G21    29.87S
MORRIS*        CLOUDY    55  55  98 S18       29.81F
LEWIS AIRPORT* DRIZZLE   56  55  97 S16G24    29.81F
NORTHERLY ISL    N/A     58  54  86 S18         N/A
$$

WIZ051-052-058>065-066-070>072-200300-
SOUTHEAST WISCONSIN

CITY           SKY/WX    TMP DP  RH WIND       PRES   REMARKS
MILWAUKEE      LGT RAIN  37  36  96 N5        29.80F FOG
KENOSHA*       FOG       37  36  96 NE5       29.80F VSB 1/2
RACINE*        FOG       36  36 100 N5        29.82F VSB 1
BURLINGTON     MIX PCPN  36  35  96 E6        29.79F
WAUKESHA       LGT RAIN  34  34 100 NE9       29.81F FOG     WCI  26
WEST BEND      CLOUDY    34  34 100 E8        29.81F FOG     WCI  27
$$

INZ001>003-010>013-019-020-200300-
NORTHWEST INDIANA

CITY           SKY/WX    TMP DP  RH WIND       PRES   REMARKS
GARY*          LGT RAIN  59  57  94 S14G29    29.87S
MICHIGAN CITY* NOT AVBL
RENSSELAER*    NOT AVBL
VALPARAISO     LGT RAIN  60  57  89 S14       29.89S
$$

LMZ740>746-200300-
SOUTHERN LAKE MICHIGAN

STATION/POSITION TIME  SKY/WX   TEMP WIND        PRES    VSBY
                                AIR  DIR/SP/G
                 (UTC)          (F)  (DEG/KT/KT) (MB)    (MI)
HARRISON CRIB    0140            56  200/ 26/ 28   N/A
BURNHAM HARBOR   0200            58  180/ 14/ 22   N/A
CALUMET HARBOR   0148            56  180/ 12/ 19 1009.9F
BURNS HARBOR     0140            58  180/ 16/ 21 1011.5F
MICHIGAN CITY    0140            58  170/ 16/ 20   N/A
$$

ABBREVIATIONS USED IN REMARKS
   TC - TEMPERATURE IN CELSIUS
  WCI - WIND CHILL INDEX
   HX - HEAT INDEX
  VSB - VISIBILITY
$$




USA.gov is the U.S. government's official web portal to all federal, state and local government web resources and services.